DW9722 Weather Reports


time (UTC)temp
F
wind
direction
speed
knots
gust
knots
rain 1hr
in
rain 24hr
in
rain mn
in
humidity
%
barometer
mb
20260507094508 61 80 0.0 0.0 0.01 0.13 0.03 47 1010.4
20260507093121 62 164 0.0 0.0 0.01 0.13 0.03 48 1010.4
20260507091517 63 89 0.0 0.0 0.01 0.17 0.03 33 1010.3
20260507090012 62 113 0.0 0.0 0.01 0.17 0.02 37 1010.3
20260507084534 61 170 0.0 0.0 0.01 0.17 0.02 20 1010.4
20260507083059 60 82 0.0 0.0 0.01 0.17 0.02 4 1010.4
20260507080021 57 81 0.0 0.0 0.00 0.21 0.02 1 1010.3
20260507074527 57 109 0.0 0.0 0.00 0.21 0.02 1 1010.3
20260507073100 55 69 0.0 0.0 0.00 0.21 0.02 1 1010.3
20260507073030 55 69 0.0 0.0 0.00 0.21 0.02 1 1010.3
20260507071623 53 113 0.0 0.0 0.00 0.28 0.02 1 1010.2
20260507070130 52 130 0.0 0.0 0.00 0.28 0.02 1 1010.3
20260507064608 51 163 0.0 0.0 0.00 0.28 0.02 1 1010.2
20260507063004 51 163 0.0 0.0 0.00 0.28 0.02 1 1010.0
20260507061534 51 163 0.0 0.0 0.00 0.38 0.02 1 1009.9
20260507054521 49 163 0.0 0.0 0.01 0.38 0.02 1 1009.8
20260507053015 49 163 0.0 0.0 0.01 0.38 0.02 1 1009.7
20260507051625 48 163 0.0 0.0 0.02 0.45 0.02 1 1009.6
20260507050036 48 163 0.0 0.0 0.01 0.44 0.01 1 1009.5
20260507044529 48 163 0.0 0.0 0.01 0.44 0.01 1 1009.3
20260507043125 48 163 0.0 0.0 0.01 0.44 0.01 1 1009.3
20260507024543 48 163 0.0 0.0 0.00 0.47 0.47 1 1009.1
20260507023036 48 163 0.0 0.0 0.01 0.47 0.47 1 1009.0
20260507021528 48 163 0.0 0.0 0.01 0.47 0.47 1 1008.9
20260507020024 48 163 0.0 0.0 0.01 0.47 0.47 1 1008.9
20260507014530 48 163 0.0 0.0 0.02 0.47 0.47 1 1008.8
20260507013015 48 163 0.0 0.0 0.01 0.46 0.46 1 1008.8
20260507011509 48 163 0.0 0.0 0.01 0.46 0.46 1 1008.8
20260507010006 48 163 0.0 0.0 0.01 0.46 0.46 1 1008.8
20260507004600 48 163 0.0 0.0 0.00 0.46 0.46 1 1008.8
20260507003055 48 163 0.0 0.0 0.00 0.46 0.46 1 1008.9
20260507001526 47 163 0.0 0.0 0.00 0.46 0.46 1 1008.8
20260507000026 47 163 0.0 0.0 0.00 0.46 0.46 1 1008.7
20260506234513 47 163 0.0 0.0 0.00 0.46 0.46 1 1008.7
20260506233006 47 163 0.0 0.0 0.00 0.46 0.46 1 1008.6
20260506231501 47 163 0.0 0.0 0.00 0.46 0.46 1 1008.5
20260506230057 47 163 0.0 0.0 0.00 0.46 0.46 1 1008.5
20260506224533 47 163 0.0 0.0 0.00 0.46 0.46 1 1008.4
20260506223028 47 163 0.0 0.0 0.00 0.46 0.46 1 1008.3
20260506211607 47 163 0.0 0.0 0.00 0.46 0.46 1 1008.1
20260506210107 47 163 0.0 0.0 0.00 0.46 0.46 1 1008.1
20260506203017 48 163 0.0 0.0 0.01 0.46 0.46 1 1007.9
20260506200101 50 163 0.0 0.0 0.01 0.47 0.46 1 1007.6
20260506194659 51 163 0.0 0.0 0.01 0.47 0.46 1 1007.4
20260506193020 51 163 0.0 0.0 0.01 0.46 0.45 1 1007.2
20260506191544 52 163 0.0 0.0 0.01 0.46 0.45 1 1006.9
20260506190108 52 163 0.0 0.0 0.01 0.46 0.45 1 1006.8
20260506184533 53 163 0.0 0.0 0.01 0.46 0.45 1 1006.7
20260506183037 54 163 0.0 0.0 0.00 0.46 0.44 1 1006.6
20260506181633 54 163 0.0 0.0 0.00 0.46 0.44 1 1006.5
20260506180106 55 163 0.0 0.0 0.00 0.46 0.44 1 1006.4
20260506174555 55 163 0.0 0.0 0.00 0.46 0.44 1 1006.2
20260506173043 55 236 0.0 0.0 0.00 0.46 0.44 1 1006.1
20260506171547 55 236 0.0 0.0 0.00 0.46 0.44 1 1006.0
20260506170118 55 236 0.0 0.0 0.00 0.46 0.44 1 1005.8
20260506164606 55 236 0.0 0.0 0.00 0.46 0.44 1 1005.5
20260506163119 55 236 0.0 0.0 0.00 0.46 0.44 1 1005.2
20260506163049 55 236 0.0 0.0 0.00 0.46 0.44 1 1005.2
20260506161551 56 236 0.0 0.0 0.00 0.46 0.44 1 1005.1
20260506160041 56 223 0.0 0.0 0.00 0.46 0.44 5 1005.2
20260506154629 57 295 0.0 0.0 0.00 0.46 0.44 31 1005.4
20260506153136 59 329 0.0 0.0 0.00 0.46 0.44 39 1004.8
20260506151531 59 330 0.0 0.0 0.00 0.46 0.44 45 1004.6
20260506151501 59 330 0.0 0.0 0.00 0.46 0.44 45 1004.7
20260506150056 60 330 0.0 0.0 0.00 0.46 0.44 49 1004.7
20260506144621 60 331 0.0 0.0 0.00 0.46 0.44 46 1004.7
20260506143125 59 224 0.0 0.0 0.00 0.46 0.44 50 1004.8
20260506140156 59 265 0.0 0.0 0.00 0.46 0.44 42 1004.9
20260506134532 59 233 0.0 0.0 0.00 0.46 0.44 35 1005.1
20260506133024 58 234 0.0 0.0 0.00 0.46 0.44 35 1005.3
20260506131518 58 235 0.0 0.0 0.00 0.46 0.44 28 1005.4
20260506130014 57 204 0.0 0.0 0.00 0.46 0.44 21 1005.2
20260506124507 57 193 0.0 0.0 0.00 0.46 0.44 1 1005.2
20260506123014 57 238 0.0 0.0 0.01 0.46 0.44 1 1005.2
20260506121627 56 211 0.0 0.0 0.02 0.47 0.44 1 1005.3
20260506120059 56 173 0.0 0.0 0.02 0.47 0.44 1 1005.4
20260506114604 56 222 0.0 0.0 0.02 0.47 0.44 1 1005.4
20260506113049 55 196 0.0 0.0 0.02 0.46 0.43 1 1005.5
20260506113019 55 188 0.0 0.0 0.02 0.46 0.43 1 1005.5
20260506111514 54 228 0.0 0.0 0.02 0.46 0.43 1 1005.5
20260506110010 54 221 0.0 0.0 0.02 0.46 0.43 1 1005.5
20260506104604 54 214 0.0 0.0 0.02 0.45 0.42 1 1005.6
20260506103054 52 265 0.0 0.0 0.02 0.44 0.41 1 1005.5
20260506101624 52 217 0.0 0.0 0.03 0.44 0.41 1 1005.5
20260506100018 52 197 0.0 0.0 0.03 0.43 0.40 1 1005.4